TimeCST,TemperatureF,Dew PointF,Humidity,Sea Level PressureIn,VisibilityMPH,Wind Direction,Wind SpeedMPH,Gust SpeedMPH,PrecipitationIn,Events,Conditions,WindDirDegrees,DateUTC
12:52 AM,15.1,3.9,61,30.19,10.0,WNW,10.4,-,N/A,,Clear,300,2013-02-16 06:52:00
1:52 AM,12.9,3.0,65,30.18,10.0,WNW,8.1,-,N/A,,Clear,300,2013-02-16 07:52:00
2:52 AM,12.2,3.2,67,30.13,10.0,WNW,11.5,-,N/A,,Scattered Clouds,300,2013-02-16 08:52:00
3:52 AM,12.0,3.0,67,30.17,10.0,WNW,8.1,-,N/A,,Scattered Clouds,290,2013-02-16 09:52:00
4:52 AM,10.9,1.9,67,30.17,10.0,WNW,6.9,-,N/A,,Scattered Clouds,290,2013-02-16 10:52:00
5:52 AM,10.4,1.4,67,30.13,10.0,WNW,8.1,-,N/A,,Partly Cloudy,300,2013-02-16 11:52:00
6:52 AM,9.0,1.9,73,30.18,10.0,WNW,5.8,-,N/A,,Scattered Clouds,290,2013-02-16 12:52:00
7:52 AM,10.9,1.9,67,30.18,10.0,WNW,6.9,-,N/A,,Mostly Cloudy,300,2013-02-16 13:52:00
8:52 AM,12.9,1.9,62,30.19,10.0,NW,9.2,-,N/A,,Mostly Cloudy,320,2013-02-16 14:52:00
9:52 AM,14.0,-0.9,52,30.19,10.0,NW,11.5,-,N/A,,Mostly Cloudy,310,2013-02-16 15:52:00
10:52 AM,16.0,-2.0,45,30.19,10.0,WNW,17.3,24.2,N/A,,Scattered Clouds,300,2013-02-16 16:52:00
11:52 AM,17.1,-0.9,45,30.17,10.0,NW,12.7,20.7,N/A,,Scattered Clouds,320,2013-02-16 17:52:00
12:52 PM,18.0,-0.0,45,30.16,10.0,NW,12.7,-,N/A,,Scattered Clouds,310,2013-02-16 18:52:00
1:52 PM,19.0,1.0,46,30.15,10.0,North,10.4,-,N/A,,Scattered Clouds,350,2013-02-16 19:52:00
2:52 PM,18.0,1.9,50,30.15,10.0,NNW,12.7,-,N/A,,Mostly Cloudy,340,2013-02-16 20:52:00
3:52 PM,18.0,1.0,48,30.16,10.0,NNW,10.4,-,N/A,,Mostly Cloudy,340,2013-02-16 21:52:00
4:52 PM,16.0,-0.0,49,30.18,10.0,NNW,11.5,-,N/A,,Scattered Clouds,330,2013-02-16 22:52:00
5:52 PM,15.1,-0.9,49,30.20,10.0,NW,11.5,-,N/A,,Partly Cloudy,310,2013-02-16 23:52:00
6:52 PM,14.0,-0.0,54,30.21,10.0,NW,8.1,-,N/A,,Clear,310,2013-02-17 00:52:00
7:52 PM,14.0,-0.9,52,30.21,10.0,WNW,6.9,-,N/A,,Clear,290,2013-02-17 01:52:00
8:52 PM,14.0,-0.0,54,30.21,10.0,West,4.6,-,N/A,,Clear,280,2013-02-17 02:52:00
9:52 PM,12.9,-0.0,56,30.22,10.0,WNW,6.9,-,N/A,,Clear,290,2013-02-17 03:52:00
10:52 PM,12.0,-0.9,56,30.21,10.0,WNW,6.9,-,N/A,,Clear,300,2013-02-17 04:52:00
11:52 PM,12.0,-2.0,53,30.21,10.0,NW,5.8,-,N/A,,Clear,310,2013-02-17 05:52:00